Weather History for Sigonella, Italy

Change the Weather History Date:

Thursday, May 3, 2012

  Actual Average Record
Temperature  
Mean Temperature 62 °F -  
Max Temperature 76 °F 79 °F 86 °F (2003)
Min Temperature 47 °F 54 °F 46 °F (2003)
Degree Days  
Heating Degree Days 4    
Growing Degree Days 12 (Base 50)    
Moisture  
Dew Point 49 °F    
Average Humidity 70    
Maximum Humidity 100    
Minimum Humidity 21    
Precipitation  
Precipitation 0.00 in 0.03 in - ()
Sea Level Pressure  
Sea Level Pressure 29.88 in    
Wind  
Wind Speed 4 mph ()    
Max Wind Speed 15 mph    
Max Gust Speed -    
Visibility 5.4 miles    
Events      
Averages and records for this station are not official NWS values.
T = Trace of Precipitation, MM = Missing Value Source: Averaged Metar Reports

Daily Weather History Graph

Daily Weather History Graph

Search for Another Location

Airport:

Trip Planner

Search our weather history database for the weather conditions in past years. The results will help you decide how hot, cold, wet, or windy it might be!

Date:

Astronomy

May. 03, 2012 Rise Set
Actual Time 6:02 AM CEST 7:52 PM CEST
Civil Twilight 5:34 AM CEST 8:20 PM CEST
Nautical Twilight 5:00 AM CEST 8:54 PM CEST
Astronomical Twilight 4:23 AM CEST 9:31 PM CEST
Moon 4:58 PM CEST 3:52 AM CEST
Length of Visible Light 14h 45m
Length of Day
13h 49m
Waxing Gibbous, 89% of the Moon is Illuminated
May 3
Waxing Gibbous
May 6
Full
May 12
Last Quarter
May 21
New
May 28
First Quarter

Hourly Weather History & Observations

Time (CEST) Temp. Dew Point Humidity Pressure Visibility Wind Dir Wind Speed Gust Speed Precip Events Conditions
12:55 AM 55.4 °F 55.4 °F 100% 29.92 in - West 2.3 mph - N/A   Clear
1:55 AM 51.8 °F 51.8 °F 100% 29.89 in - West 2.3 mph - N/A   Clear
2:00 AM 53 °F 52 °F 95% 29.90 in 6 mi West 2.3 mph - -  
2:55 AM 51.8 °F 51.8 °F 100% 29.86 in - WSW 2.3 mph - N/A   Clear
3:55 AM 50.0 °F 50.0 °F 100% 29.86 in - Calm Calm - N/A   Clear
4:55 AM 50.0 °F 48.2 °F 94% 29.86 in - West 2.3 mph - N/A   Clear
5:00 AM 49 °F 49 °F 99% 29.87 in 6 mi West 2.3 mph - -  
5:55 AM 48.2 °F 48.2 °F 100% 29.86 in 3.7 mi WSW 2.3 mph - N/A   Unknown
6:55 AM 48.2 °F 48.2 °F 100% 29.89 in 3.7 mi WSW 4.6 mph - N/A   Unknown
7:55 AM 53.6 °F 51.8 °F 94% 29.89 in 4.3 mi WNW 4.6 mph - N/A   Unknown
8:00 AM 53 °F 52 °F 97% 29.91 in 4 mi WNW 4.6 mph - -   Mist
8:55 AM 62.6 °F 55.4 °F 77% 29.92 in 5.0 mi WSW 2.3 mph - N/A   Unknown
9:55 AM 68.0 °F 46.4 °F 46% 29.89 in - WNW 2.3 mph - N/A   Clear
10:55 AM 71.6 °F 42.8 °F 35% 29.89 in - East 2.3 mph - N/A   Clear
11:00 AM 71 °F 42 °F 24% 29.91 in 6 mi East 2.3 mph - -  
11:55 AM 73.4 °F 42.8 °F 33% 29.89 in - ESE 9.2 mph - N/A   Clear
12:55 PM 73.4 °F 42.8 °F 33% 29.89 in - NW 3.5 mph - N/A   Clear
1:55 PM 73.4 °F 42.8 °F 33% 29.86 in - NE 15.0 mph - N/A   Clear
2:00 PM 74 °F 42 °F 21% 29.88 in 6 mi NE 15.0 mph - -  
2:55 PM 73.4 °F 46.4 °F 38% 29.83 in 6.2 mi ENE 12.7 mph - N/A   Partly Cloudy
3:55 PM 73.4 °F 48.2 °F 41% 29.86 in - East 12.7 mph - N/A   Clear
4:55 PM 68.0 °F 44.6 °F 43% 29.83 in 6.2 mi East 12.7 mph - N/A   Partly Cloudy
5:00 PM 69 °F 45 °F 30% 29.85 in 6 mi East 12.7 mph - -   Scattered Clouds
5:55 PM 68.0 °F 46.4 °F 46% 29.83 in 6.2 mi East 8.1 mph - N/A   Partly Cloudy
6:55 PM 64.4 °F 50.0 °F 59% 29.83 in - East 9.2 mph - N/A   Clear
7:55 PM 62.6 °F 51.8 °F 68% 29.86 in - North 4.6 mph - N/A   Clear
8:00 PM 63 °F 53 °F 60% 29.88 in 6 mi North 4.6 mph - -  
8:55 PM 59.0 °F 57.2 °F 94% 29.86 in - ESE 2.3 mph - N/A   Clear
9:55 PM 57.2 °F 55.4 °F 94% 29.86 in - Calm Calm - N/A   Clear
10:55 PM 53.6 °F 53.6 °F 100% 29.89 in - Calm Calm - N/A   Clear
11:00 PM 54 °F 54 °F 99% 29.90 in 6 mi Calm Calm - -  
11:55 PM 53.6 °F 53.6 °F 100% 29.89 in - Calm Calm - N/A   Clear